Location: Newark
(39.0622°N, 106.5590°E)
Time: 15:23:45
(UTC+00:00)

S-56A Canister/Altair - Pass Details

Date: 29 January 2020
Orbit: 633 x 2499 km, 38.9° (Epoch: 21 February)

Event Time Altitude Azimuth Distance (km) Brightness Sun altitude
Rises 12:37:14 0° 253° (WSW) 4,579 12.6 -28.6°
Reaches altitude 10° 12:40:47 10° 252° (WSW) 3,298 11.6 -29.3°
Enters shadow 12:48:03 73° 210° (SSW) 1,000 8.0 -30.7°
